959  
ASUS41 KCLE 280102  
RWRCLE  
OHIO REGIONAL WEATHER ROUNDUP  
NATIONAL WEATHER SERVICE CLEVELAND, OH  
900 PM EDT TUE SEP 27 2022  
 
NOTE: "FAIR" INDICATES FEW OR NO CLOUDS BELOW 12,000 FEET WITH NO  
SIGNIFICANT WEATHER AND/OR S TO VISIBILITY
.  
 
OHZ001>008-015>018-024>027-034-035-043-044-280200-  
NORTHWEST OHIO  
 
CITY SKY/WX TMP DP RH WIND PRES REMARKS
 
DEFIANCE MOCLDY 51 43 74 W10 30.13R  
FINDLAY CLEAR 50 44 80 W10 30.11R  
TOLEDO EXPRESS CLOUDY 56 44 64 NW13 30.10R  
TOLEDO EXEC CLOUDY 56 45 66 NW13 30.10R  
LIMA CLEAR 50 41 71 W14 30.13R  

 
 
OHZ009>014-019>023-028>033-038-089-280200-  
NORTHEAST OHIO  
 
CITY SKY/WX TMP DP RH WIND PRES REMARKS
 
CLE-HOPKINS RAIN 51 47 86 W12 30.04R FOG  
CLE-LAKEFRONT CLOUDY 59 46 62 NW17G28 30.04R  
CUY CO. ARPT MOCLDY 55 46 71 W9 30.04R  
LORAIN-ELYRIA LGT RAIN 50 45 83 NW8G18 30.07R  
ASHTABULA RAIN 51 47 86 SW7 30.02R FOG  
AKRON-CANTON PTCLDY 49 42 77 W7 30.06R  
WOOSTER CLEAR 46 43 89 W6 30.08R  
MANSFIELD CLEAR 48 42 80 W7 30.09R  
YOUNGSTOWN LGT RAIN 50 44 80 SW6 30.04R  

 
 
OHZ042-051>053-060>062-070>072-077>081-280200-  
SOUTHWEST OHIO  
 
CITY SKY/WX TMP DP RH WIND PRES REMARKS
 
CINC-COVINGTON PTCLDY 56 38 50 NW6 30.15R  
CINC-LUNKEN CLEAR 54 38 54 N5 30.16R  
HAMILTON CLEAR 49 40 71 NW5 30.17R  
DAYTON CLEAR 52 33 48 NW9 30.16R  
WRIGHT-PAT AFB NOT AVBL  
DAYTON GENERAL CLEAR 55 34 45 N7 30.14R  
WILMINGTON CLEAR 54 34 46 NW10 30.14R  

 
 
OHZ036-037-039>041-045>050-054>059-063>069-073>076-082>088-280200-  
CENTRAL AND SOUTHEAST OHIO  
 
CITY SKY/WX TMP DP RH WIND PRES REMARKS
 
COLUMBUS PTCLDY 52 42 69 NW7 30.12R  
OSU AIRPORT PTCLDY 51 41 68 NW7 30.12R  
BOLTON FIELD NOT AVBL  
RICKENBACK AFB NOT AVBL  
NEWARK CLOUDY 52 43 71 W5 30.11R  
MARION PTCLDY 50 43 77 W12 30.11R  
LANCASTER PTCLDY 48 42 80 CALM 30.12R  
ZANESVILLE CLOUDY 51 44 77 W5 30.10R  
NEW PHILLY NOT AVBL  

 
 
 
CLICK HERE TO GO TO PREVIOUS BULLETINS.

The Nexlab OH Page
The Nexlab PA Page Main Text Page